Weather History for KBWG - June, 2014

Change the Weather History Date:

Tuesday, June 10, 2014

  Actual Average Record
Temperature  
Mean Temperature 73 °F 74 °F  
Max Temperature 80 °F 85 °F 103 °F (1914)
Min Temperature 66 °F 63 °F 45 °F (1977)
Degree Days  
Heating Degree Days 0 0  
Month to date heating degree days 0 3  
Since 1 June heating degree days 0 3  
Since 1 July heating degree days 4533 4046  
Cooling Degree Days 8 9  
Month to date cooling degree days 91 79  
Year to date cooling degree days 288 232  
Since 1 June cooling degree days 91 79  
Growing Degree Days 22 (Base 50)    
Moisture  
Dew Point 66 °F    
Average Humidity 78    
Maximum Humidity 93    
Minimum Humidity 62    
Precipitation  
Precipitation 0.44 in 0.15 in 1.80 in (1939)
Month to date precipitation 1.10 1.51  
Year to date precipitation 21.68 23.44  
Snow  
Snow 0.00 in 0.00 in 0.00 in ()
Month to date snowfall 0.0 0.0  
Since 1 June snowfall 0.0 0.0  
Since 1 July snowfall 10.4 9.1  
Snow Depth 0.00 in    
Sea Level Pressure  
Sea Level Pressure 29.83 in    
Wind  
Wind Speed 9 mph (South)    
Max Wind Speed 17 mph    
Max Gust Speed 24 mph    
Visibility 9 miles    
Events Rain , Thunderstorm    
T = Trace of Precipitation, MM = Missing Value Source: NWS Daily Summary

Daily Weather History Graph

Daily Weather History Graph

Search for Another Location

Airport or City:

Trip Planner

Search our weather history database for the weather conditions in past years. The results will help you decide how hot, cold, wet, or windy it might be!

Date:

Astronomy

Jun. 10, 2014 Rise Set
Actual Time 5:25 AM CDT 8:04 PM CDT
Civil Twilight 4:55 AM CDT 8:35 PM CDT
Nautical Twilight 4:16 AM CDT 9:13 PM CDT
Astronomical Twilight 3:34 AM CDT 9:56 PM CDT
Moon 5:32 PM CDT (6/10) 3:27 AM CDT (6/10)
Length of Visible Light 15h 40m
Length of Day
14h 39m
Waxing Gibbous, 92% of the Moon is Illuminated
Jun 10
Waxing Gibbous
Jun 12
Full
Jun 19
Last Quarter
Jun 27
New
Jul 5
First Quarter

Hourly Weather History & Observations

Time (CDT) Temp. Dew Point Humidity Pressure Visibility Wind Dir Wind Speed Gust Speed Precip Events Conditions
12:08 AM 69.1 °F 64.9 °F 87% 29.85 in 2.5 mi SE 8.1 mph - 0.12 in Rain Heavy Rain
12:21 AM 69.1 °F 66.0 °F 90% 29.85 in 4.0 mi SE 8.1 mph - 0.18 in Rain Rain
12:53 AM 69.1 °F 66.0 °F 90% 29.82 in 6.0 mi ESE 8.1 mph - 0.25 in Rain Rain
1:53 AM 69.1 °F 66.0 °F 90% 29.82 in 10.0 mi South 8.1 mph - 0.01 in   Partly Cloudy
2:13 AM 69.1 °F 66.0 °F 90% 29.83 in 10.0 mi South 9.2 mph - N/A   Mostly Cloudy
2:22 AM 69.1 °F 66.0 °F 90% 29.83 in 10.0 mi South 10.4 mph - N/A   Overcast
2:53 AM 68.0 °F 64.9 °F 90% 29.81 in 10.0 mi South 11.5 mph - N/A   Mostly Cloudy
3:03 AM 68.0 °F 64.9 °F 90% 29.82 in 10.0 mi South 8.1 mph - N/A   Mostly Cloudy
3:18 AM 68.0 °F 64.9 °F 90% 29.83 in 10.0 mi South 9.2 mph - N/A   Scattered Clouds
3:53 AM 66.9 °F 64.0 °F 90% 29.83 in 10.0 mi South 13.8 mph - N/A   Clear
4:15 AM 66.9 °F 63.0 °F 87% 29.84 in 10.0 mi South 11.5 mph - N/A   Mostly Cloudy
4:30 AM 66.9 °F 63.0 °F 87% 29.84 in 10.0 mi South 9.2 mph - N/A   Scattered Clouds
4:53 AM 66.0 °F 63.0 °F 90% 29.83 in 10.0 mi SSW 6.9 mph - N/A   Scattered Clouds
5:35 AM 66.9 °F 63.0 °F 87% 29.85 in 10.0 mi SSW 8.1 mph - N/A   Mostly Cloudy
5:53 AM 66.9 °F 64.0 °F 90% 29.85 in 10.0 mi SSW 9.2 mph - N/A   Overcast
6:53 AM 68.0 °F 64.0 °F 87% 29.85 in 10.0 mi South 6.9 mph - N/A   Mostly Cloudy
7:18 AM 68.0 °F 64.0 °F 87% 29.87 in 10.0 mi South 8.1 mph - N/A   Mostly Cloudy
7:53 AM 70.0 °F 64.0 °F 81% 29.86 in 10.0 mi South 9.2 mph - N/A   Scattered Clouds
9:04 AM 72.0 °F 64.9 °F 78% 29.88 in 10.0 mi South 10.4 mph - N/A   Mostly Cloudy
9:17 AM 73.0 °F 64.9 °F 76% 29.88 in 10.0 mi South 8.1 mph - N/A   Scattered Clouds
10:05 AM 75.0 °F 66.0 °F 73% 29.88 in 10.0 mi SSW 11.5 mph - N/A   Mostly Cloudy
10:18 AM 75.0 °F 66.0 °F 73% 29.88 in 10.0 mi South 8.1 mph - N/A   Scattered Clouds
10:53 AM 75.9 °F 66.9 °F 74% 29.86 in 10.0 mi South 6.9 mph - 0.00 in Rain Light Rain
11:53 AM 78.1 °F 66.9 °F 68% 29.84 in 10.0 mi SSE 9.2 mph - 0.00 in   Scattered Clouds
12:53 PM 78.1 °F 64.9 °F 64% 29.84 in 10.0 mi South 13.8 mph - N/A   Mostly Cloudy
1:30 PM 71.1 °F 64.9 °F 81% 29.87 in 1.2 mi WSW 11.5 mph 24.2 mph 0.20 in Rain , Thunderstorm Heavy Rain
1:43 PM 70.0 °F 66.0 °F 87% 29.86 in 1.5 mi SW 10.4 mph - 0.33 in Rain , Thunderstorm Heavy Thunderstorms and Rain
2:20 PM 69.1 °F 66.0 °F 90% 29.85 in 10.0 mi South 8.1 mph - 0.03 in Rain , Thunderstorm Light Rain
2:53 PM 70.0 °F 66.0 °F 87% 29.81 in 10.0 mi SSE 5.8 mph - 0.05 in Rain Light Rain
4:04 PM 72.0 °F 68.0 °F 87% 29.81 in 10.0 mi SE 5.8 mph - N/A   Mostly Cloudy
4:13 PM 72.0 °F 68.0 °F 87% 29.81 in 10.0 mi SE 5.8 mph - N/A   Mostly Cloudy
4:21 PM 73.0 °F 68.0 °F 84% 29.81 in 10.0 mi SE 5.8 mph - N/A   Mostly Cloudy
4:53 PM 73.0 °F 68.0 °F 84% 29.79 in 10.0 mi SSE 8.1 mph - N/A   Mostly Cloudy
5:53 PM 75.0 °F 69.1 °F 82% 29.79 in 10.0 mi SSE 12.7 mph - N/A   Scattered Clouds
6:53 PM 73.9 °F 68.0 °F 82% 29.77 in 10.0 mi SSE 10.4 mph - N/A   Mostly Cloudy
7:53 PM 73.0 °F 68.0 °F 84% 29.77 in 10.0 mi SSE 10.4 mph - N/A   Mostly Cloudy
8:53 PM 71.1 °F 66.9 °F 87% 29.75 in 10.0 mi South 8.1 mph - N/A   Clear
10:53 PM 70.0 °F 66.0 °F 87% 29.79 in 10.0 mi South 10.4 mph - N/A   Clear
11:53 PM 70.0 °F 64.9 °F 84% 29.78 in 10.0 mi South 10.4 mph - N/A   Clear